Location: Newark
(31.5350°N, 35.0986°E)
Time: 16:22:35
(UTC+00:00)

Tiros 1 despin weight - Visible Passes

Search period start: 15 September 2019 00:00
Search period end: 25 September 2019 00:00
Orbit: 595 x 642 km, 48.2° (Epoch: 15 September)

Date Brightness Start Highest point End Pass type
(mag) Time Alt. Az. Time Alt. Az. Time Alt. Az.
15 Sep ? 16:10:43 10° NNW 16:12:52 13° NNE 16:15:01 10° NE visible
15 Sep ? 17:50:58 10° NW 17:53:57 36° NNW 17:53:57 36° NNW visible
16 Sep ? 16:26:41 10° NNW 16:29:56 20° NNE 16:32:50 12° ENE visible
16 Sep ? 18:07:27 10° NW 18:09:54 32° NW 18:09:54 32° NW visible
17 Sep ? 16:42:50 10° NNW 16:46:51 33° NNE 16:48:51 22° ENE visible
17 Sep ? 18:24:21 10° WNW 18:25:55 20° W 18:25:55 20° W visible
18 Sep ? 16:59:11 10° NW 17:03:34 66° NE 17:04:58 41° ESE visible
19 Sep ? 17:15:49 10° WNW 17:20:09 56° SW 17:21:12 43° S visible
20 Sep ? 17:32:57 10° WNW 17:36:34 25° SW 17:37:35 23° SSW visible
21 Sep ? 16:07:26 10° NW 16:11:52 90° SSW 16:16:17 10° SE visible
21 Sep ? 17:51:58 10° WSW 17:52:52 11° SW 17:53:46 10° SW visible
22 Sep ? 16:24:15 10° WNW 16:28:23 39° SW 16:32:29 10° SSE visible
23 Sep ? 16:41:47 10° W 16:44:44 18° SW 16:47:40 10° S visible
